GPS BIIF-12

Last updated on Nov. 18, 2019, 4:21 a.m. UTC

1 41328U 16007A   19320.71428196  .00000061  00000-0  00000+0 0  9991
2 41328  54.8172 184.9191 0034064 217.5646 142.2899  2.00566211 27667
UTC
Height (km)
Latitude
Longitude
Inclination
Orbital Period
UTC large
Height (km)
Speed (km/s)
/
Latitude / Longitude
Inclination (degrees)
Orbital Period (minutes)
Azimuth
Elevation
Range (km)
Doppler Factor
iOS Compass Heading
iOS Angle

Next 30 passes for location: Hong Kong

Rise time Rise Azimuth (degrees) Set time Set Azimuth (degrees) Duration Max altitude (degrees)

No matching passes for this satellites